EW4338 Weather Reports


time (UTC)temp
C
wind
direction
speed
KPH
gust
KPH
rain 1hr
cm
rain 24hr
cm
rain mn
cm
humidity
%
barometer
mb
20210801192014 19 67 0.0 8.0 0.00 1.73 0.00 59 1030.5
20210801191526 18 115 0.0 8.0 0.00 1.73 0.00 60 1030.6
20210801191014 18 52 0.0 6.4 0.00 1.73 0.00 62 1030.6
20210801190513 18 98 1.6 6.4 0.00 1.73 0.00 62 1030.7
20210801190122 18 102 0.0 9.7 0.00 1.73 0.00 65 1030.8
20210801185514 18 111 0.0 9.7 0.00 1.73 0.00 64 1030.8
20210801185013 18 132 0.0 6.4 0.00 1.73 0.00 64 1030.9
20210801184558 18 119 0.0 9.7 0.00 1.73 0.00 63 1030.9
20210801184018 18 102 0.0 9.7 0.00 1.73 0.00 62 1031.0
20210801183520 19 103 0.0 6.4 0.00 1.73 0.00 62 1031.0
20210801183019 19 103 0.0 8.0 0.00 1.73 0.00 61 1031.0
20210801182536 20 104 0.0 8.0 0.00 1.73 0.00 66 1031.1
20210801182012 19 102 0.0 16.1 0.00 1.73 0.00 63 1031.1
20210801181513 20 103 3.2 16.1 0.00 1.73 0.00 64 1031.2
20210801181009 19 92 0.0 3.2 0.00 1.73 0.00 69 1031.2
20210801180511 18 94 0.0 3.2 0.00 1.73 0.00 67 1031.2
20210801180016 18 92 0.0 4.8 0.00 1.73 0.00 71 1031.3
20210801175509 18 73 0.0 4.8 0.00 1.73 0.00 71 1031.3
20210801175009 18 56 0.0 4.8 0.00 1.73 0.00 70 1031.3
20210801174513 18 91 0.0 1.6 0.00 1.73 0.00 68 1031.4
20210801174009 18 71 0.0 8.0 0.00 1.73 0.00 70 1031.5
20210801173551 18 102 0.0 4.8 0.00 1.73 0.00 72 1031.6
20210801173021 17 82 0.0 4.8 0.00 1.73 0.00 71 1031.7
20210801172508 17 79 0.0 9.7 0.00 1.73 0.00 71 1031.7
20210801172011 17 52 0.0 9.7 0.00 1.73 0.00 70 1031.7
20210801171508 18 67 1.6 8.0 0.00 1.73 0.00 69 1031.7
20210801171006 18 71 0.0 3.2 0.00 1.73 0.00 71 1031.8
20210801170508 18 86 0.0 4.8 0.00 1.73 0.00 69 1031.7
20210801170014 17 68 0.0 12.9 0.00 1.73 0.00 71 1031.7
20210801165505 17 63 0.0 12.9 0.00 1.73 0.00 69 1031.7
20210801165011 17 78 0.0 4.8 0.00 1.73 0.00 69 1031.7
20210801164511 17 79 0.0 4.8 0.00 1.73 0.00 69 1031.8
20210801164004 18 73 0.0 4.8 0.00 1.73 0.00 68 1031.7
20210801163505 18 74 0.0 4.8 0.00 1.73 0.00 67 1031.7
20210801163006 18 72 0.0 3.2 0.00 1.73 0.00 66 1031.7
20210801162509 19 91 0.0 4.8 0.00 1.73 0.00 63 1031.8
20210801162003 18 98 0.0 4.8 0.00 1.73 0.00 66 1031.7
20210801161057 18 106 0.0 4.8 0.00 1.73 0.00 67 1031.8
20210801160556 17 108 0.0 6.4 0.00 1.73 0.00 60 1031.7
20210801160201 17 105 0.0 6.4 0.00 1.73 0.00 58 1031.8
20210801155527 18 94 0.0 4.8 0.00 1.73 0.00 64 1031.7
20210801155034 18 80 0.0 1.6 0.00 1.73 0.00 73 1031.6
20210801154539 17 104 0.0 4.8 0.00 1.73 0.00 68 1031.7
20210801154024 17 102 0.0 4.8 0.00 1.73 0.00 57 1031.6
20210801153557 17 104 0.0 3.2 0.00 1.73 0.00 60 1031.6
20210801153028 18 112 0.0 0.0 0.00 1.73 0.00 62 1031.6
20210801152520 18 103 0.0 0.0 0.00 1.73 0.00 61 1031.6
20210801152030 18 100 0.0 0.0 0.00 1.73 0.00 60 1031.6
20210801151549 18 106 0.0 0.0 0.00 1.73 0.00 57 1031.6
20210801151029 17 13 0.0 0.0 0.00 1.73 0.00 62 1031.6
20210801150521 17 13 0.0 0.0 0.00 1.73 0.00 61 1031.6
20210801150026 17 146 0.0 0.0 0.00 1.73 0.00 59 1031.7
20210801145518 16 146 0.0 0.0 0.00 1.73 0.00 61 1031.8
20210801145009 16 146 0.0 0.0 0.00 1.73 0.00 59 1031.7
20210801144512 16 146 0.0 0.0 0.00 1.73 0.00 60 1031.6
20210801144013 15 152 0.0 0.0 0.00 1.73 0.00 63 1031.6
20210801143505 15 153 0.0 0.0 0.00 1.73 0.00 63 1031.6
20210801143015 15 153 0.0 0.0 0.00 1.73 0.00 68 1031.6
20210801142504 15 153 0.0 0.0 0.00 1.73 0.00 67 1031.6
20210801142004 15 153 0.0 0.0 0.00 1.73 0.00 67 1031.7
20210801141743 15 153 0.0 0.0 0.00 1.73 0.00 67 1031.7
20210801141216 15 153 0.0 0.0 0.00 1.73 0.00 66 1031.6
20210801140608 15 153 0.0 0.0 0.00 1.73 0.00 66 1031.7
20210801140147 15 153 0.0 0.0 0.00 1.73 0.00 68 1031.6
20210801135619 15 153 0.0 0.0 0.00 1.73 0.00 66 1031.6
20210801135101 14 153 0.0 0.0 0.00 1.73 0.00 69 1031.5
20210801134715 14 153 0.0 0.0 0.00 1.73 0.00 70 1031.5
20210801134051 14 153 0.0 0.0 0.00 1.73 0.00 70 1031.5
20210801133551 14 153 0.0 0.0 0.00 1.73 0.00 68 1031.5
20210801133142 15 153 0.0 0.0 0.00 1.73 0.00 68 1031.5
20210801132600 15 153 0.0 0.0 0.00 1.73 0.00 71 1031.5
20210801132050 15 153 0.0 0.0 0.00 1.73 0.00 68 1031.4
20210801131728 14 153 0.0 0.0 0.00 1.73 0.00 67 1031.4
20210801131047 14 153 0.0 0.0 0.00 1.73 0.00 67 1031.4
20210801130559 14 153 0.0 0.0 0.00 1.73 0.00 67 1031.3
20210801130138 14 153 0.0 0.0 0.00 1.73 0.00 67 1031.3
20210801125605 14 153 0.0 0.0 0.00 1.75 0.00 68 1031.3
20210801125044 14 153 0.0 0.0 0.00 1.75 0.00 69 1031.2
20210801124608 14 153 0.0 0.0 0.00 1.75 0.00 70 1031.1
20210801124044 13 153 0.0 0.0 0.00 1.75 0.00 70 1031.2
20210801123542 13 153 0.0 0.0 0.00 1.75 0.00 70 1031.2
20210801123238 13 153 0.0 0.0 0.00 1.75 0.00 69 1031.2
20210801122048 13 270 0.0 0.0 0.00 1.75 0.00 69 1031.1
20210801121705 13 360 0.0 0.0 0.00 1.75 0.00 71 1031.2
20210801121039 14 360 0.0 0.0 0.00 1.75 0.00 70 1031.1
20210801120540 13 360 0.0 0.0 0.00 1.75 0.00 70 1031.0
20210801120152 13 360 0.0 0.0 0.00 1.75 0.00 70 1030.9
20210801115537 14 360 0.0 0.0 0.00 1.78 0.00 71 1030.9
20210801115036 14 360 0.0 0.0 0.00 1.78 0.00 71 1030.9
20210801114637 14 360 0.0 0.0 0.00 1.78 0.00 70 1030.9
20210801114037 14 360 0.0 0.0 0.00 1.78 0.00 70 1030.9
20210801113536 14 360 0.0 0.0 0.00 1.78 0.00 71 1030.9
20210801113055 14 360 0.0 0.0 0.00 1.78 0.00 71 1030.8
20210801112536 14 360 0.0 0.0 0.00 1.78 0.00 73 1030.9
20210801112052 14 360 0.0 0.0 0.00 1.78 0.00 72 1030.8
20210801111536 13 360 0.0 0.0 0.00 1.78 0.00 70 1030.9
20210801111041 13 360 0.0 0.0 0.00 1.78 0.00 69 1030.8
20210801110543 13 360 0.0 0.0 0.00 1.78 0.00 70 1030.7
20210801110046 13 360 0.0 0.0 0.00 1.78 0.00 69 1030.7
20210801105538 14 16 0.0 0.0 0.00 1.78 0.00 69 1030.7
20210801105034 14 16 0.0 0.0 0.00 1.78 0.00 70 1030.7
20210801104603 13 10 0.0 0.0 0.00 1.78 0.00 68 1030.7
20210801104034 13 9 0.0 0.0 0.00 1.78 0.00 68 1030.6
20210801103545 13 9 0.0 0.0 0.00 1.78 0.00 69 1030.7
20210801103124 13 9 0.0 0.0 0.00 1.78 0.00 71 1030.6
20210801102533 13 88 0.0 0.0 0.00 1.78 0.00 71 1030.6
20210801102049 13 88 0.0 0.0 0.00 1.78 0.00 72 1030.5
20210801101544 13 88 0.0 0.0 0.00 1.78 0.00 72 1030.4
20210801101050 13 88 0.0 0.0 0.00 1.78 0.00 72 1030.5
20210801100534 13 88 0.0 0.0 0.00 1.78 0.00 74 1030.5
20210801100101 14 86 0.0 0.0 0.00 1.78 0.00 75 1030.4
20210801095537 14 86 0.0 0.0 0.00 1.78 0.00 76 1030.4
20210801095030 14 86 0.0 0.0 0.00 1.78 0.00 76 1030.3
20210801094654 14 111 0.0 0.0 0.00 1.78 0.00 75 1030.3
20210801094030 14 270 0.0 0.0 0.00 1.78 0.00 72 1030.3
20210801093530 13 270 0.0 0.0 0.00 1.78 0.00 73 1030.2
20210801093117 13 270 0.0 0.0 0.00 1.78 0.00 76 1030.1
20210801092528 13 270 0.0 0.0 0.00 1.78 0.00 78 1030.0
20210801092040 13 270 0.0 0.0 0.00 1.78 0.00 79 1030.0
20210801091553 13 270 0.0 0.0 0.00 1.78 0.00 79 1029.9
20210801091027 13 350 0.0 0.0 0.00 1.78 0.00 80 1030.0
20210801090525 13 350 0.0 4.8 0.00 1.78 0.00 80 1029.8
20210801090108 13 355 0.0 4.8 0.00 1.78 0.00 81 1029.8
20210801085524 13 270 0.0 0.0 0.00 1.78 0.00 82 1029.7
20210801085033 13 270 0.0 0.0 0.00 1.78 0.00 83 1029.8
20210801084558 13 270 0.0 0.0 0.00 1.78 0.00 83 1030.0
20210801084021 13 270 0.0 0.0 0.00 1.78 0.00 83 1030.0
20210801083532 14 270 0.0 0.0 0.00 1.78 0.00 83 1030.1
20210801083051 14 270 0.0 1.6 0.00 1.78 0.00 83 1030.1
20210801082535 14 270 0.0 1.6 0.00 1.78 0.00 83 1030.1
20210801082043 14 270 0.0 0.0 0.00 1.78 0.00 83 1030.1
20210801081603 14 270 0.0 0.0 0.00 1.78 0.00 83 1030.2
20210801081032 14 270 0.0 0.0 0.00 1.78 0.00 83 1030.2
20210801080518 14 270 0.0 0.0 0.00 1.78 0.00 84 1030.2
20210801080025 14 270 0.0 0.0 0.00 1.78 0.00 84 1030.4
20210801075518 14 270 0.0 0.0 0.00 1.93 0.00 85 1030.4
20210801075056 14 270 0.0 0.0 0.00 1.93 0.00 85 1030.5
20210801074529 14 270 0.0 0.0 0.00 1.93 0.00 85 1030.6
20210801074016 14 270 0.0 0.0 0.00 1.93 0.00 85 1030.7
20210801073515 14 270 0.0 0.0 0.00 1.93 0.00 85 1030.6
20210801073023 14 270 0.0 0.0 0.00 1.93 0.00 84 1030.7
20210801072515 14 270 0.0 0.0 0.00 1.93 0.00 84 1030.7
20210801072017 14 270 0.0 0.0 0.00 1.93 0.00 85 1030.8
20210801071533 14 270 0.0 0.0 0.00 1.93 0.00 85 1030.8
20210801071013 14 270 0.0 0.0 0.00 1.93 0.00 84 1030.9
20210801070555 14 270 0.0 0.0 0.00 1.93 0.00 84 1030.8
20210801070022 14 270 0.0 0.0 0.00 1.93 0.00 84 1030.9
20210801065513 14 270 0.0 0.0 0.00 1.98 0.00 85 1030.9
20210801065021 14 270 0.0 0.0 0.00 1.98 0.00 85 1030.9
20210801064525 14 270 0.0 0.0 0.00 1.98 0.00 85 1031.1
20210801064011 14 270 0.0 0.0 0.00 1.98 0.00 85 1031.1
20210801063511 14 270 0.0 0.0 0.00 1.98 0.00 84 1031.1
20210801063013 14 270 0.0 0.0 0.00 1.98 0.00 84 1031.3
20210801062534 14 270 0.0 0.0 0.00 1.98 0.00 84 1031.3
20210801062009 14 270 0.0 0.0 0.00 1.98 0.00 85 1031.3
20210801061532 14 270 0.0 0.0 0.00 1.98 0.00 85 1031.2
20210801061016 14 25 0.0 0.0 0.00 1.98 0.00 85 1031.1
20210801060530 14 27 0.0 0.0 0.00 1.98 0.00 85 1031.2
20210801060014 14 27 0.0 0.0 0.00 1.98 0.00 85 1031.1
20210801055514 14 27 0.0 0.0 0.00 1.98 1.98 85 1031.0
20210801055012 14 27 0.0 0.0 0.00 1.98 1.98 85 1031.1
20210801054517 14 27 0.0 0.0 0.00 1.98 1.98 85 1031.1
20210801054028 14 27 0.0 0.0 0.00 1.98 1.98 84 1031.1
20210801053506 14 30 0.0 0.0 0.00 1.98 1.98 83 1031.0
20210801053006 14 30 0.0 0.0 0.00 1.98 1.98 84 1031.0
20210801052504 14 30 0.0 0.0 0.00 1.98 1.98 84 1030.9
20210801052006 14 30 0.0 0.0 0.00 1.98 1.98 83 1031.0
20210801051506 14 30 0.0 0.0 0.00 1.98 1.98 83 1030.9
20210801051004 14 23 0.0 0.0 0.00 1.98 1.98 83 1030.9
20210801050505 14 27 0.0 0.0 0.00 1.98 1.98 83 1031.0
20210801050011 14 24 0.0 0.0 0.00 1.98 1.98 83 1030.9
20210801045503 14 21 0.0 0.0 0.00 1.98 1.98 82 1031.0
20210801045005 14 19 0.0 1.6 0.00 1.98 1.98 82 1030.9
20210801044504 14 17 0.0 1.6 0.00 1.98 1.98 82 1030.9
20210801044006 14 347 0.0 3.2 0.00 1.98 1.98 82 1030.9
20210801043506 14 12 0.0 9.7 0.00 1.98 1.98 82 1030.9
20210801043016 14 17 0.0 9.7 0.00 1.98 1.98 82 1030.8
20210801042504 14 15 0.0 3.2 0.00 1.98 1.98 82 1030.7
20210801042006 14 15 0.0 1.6 0.00 1.98 1.98 82 1030.7
20210801041501 14 8 0.0 3.2 0.00 1.98 1.98 82 1030.7
20210801040600 14 17 0.0 0.0 0.00 1.98 1.98 82 1030.6
20210801040204 14 13 0.0 4.8 0.00 1.98 1.98 82 1030.7
20210801035640 15 12 0.0 3.2 0.00 1.98 1.98 82 1030.6
20210801035100 15 11 0.0 0.0 0.00 1.98 1.98 82 1030.6
20210801034654 15 25 0.0 6.4 0.00 1.98 1.98 82 1030.5
20210801034103 15 35 0.0 6.4 0.00 1.98 1.98 82 1030.5
20210801033602 14 36 0.0 4.8 0.00 1.98 1.98 82 1030.4
20210801033310 14 19 0.0 1.6 0.00 1.98 1.98 81 1030.4
20210801032611 14 4 0.0 0.0 0.00 1.98 1.98 81 1030.4
20210801032056 14 15 0.0 0.0 0.00 1.98 1.98 81 1030.3
20210801031619 14 4 0.0 0.0 0.00 1.98 1.98 81 1030.3
20210801031111 14 5 0.0 3.2 0.00 1.98 1.98 82 1030.1
20210801030600 14 12 0.0 3.2 0.00 1.98 1.98 81 1030.1
20210801030157 14 16 0.0 3.2 0.00 1.98 1.98 81 1030.0
20210801025605 14 360 0.0 3.2 0.00 1.98 1.98 80 1029.9
20210801025052 14 4 0.0 3.2 0.00 1.98 1.98 81 1029.9
20210801024710 15 17 0.0 4.8 0.00 1.98 1.98 81 1029.9
20210801024111 15 355 0.0 0.0 0.00 1.98 1.98 81 1029.7
20210801023552 15 4 0.0 0.0 0.00 1.98 1.98 81 1029.7
20210801023134 15 360 0.0 4.8 0.00 1.98 1.98 81 1029.6
20210801022612 15 352 0.0 4.8 0.00 1.98 1.98 82 1029.6
20210801022056 15 352 0.0 3.2 0.00 1.98 1.98 82 1029.5
20210801021712 15 2 0.0 0.0 0.03 1.98 1.98 83 1029.5
20210801021049 15 350 0.0 4.8 0.03 1.98 1.98 84 1029.4
20210801020610 14 17 0.0 4.8 0.03 1.98 1.98 85 1029.4
20210801020117 14 270 0.0 0.0 0.03 1.98 1.98 87 1029.4
20210801015603 13 4 0.0 0.0 0.03 1.98 1.98 89 1029.3
20210801015047 13 270 0.0 0.0 0.03 1.98 1.98 90 1029.2
20210801014622 13 270 0.0 0.0 0.03 1.98 1.98 90 1029.2
20210801014046 13 270 0.0 0.0 0.03 1.98 1.98 90 1029.2
20210801013546 13 270 0.0 0.0 0.03 1.98 1.98 90 1029.2
20210801013216 13 270 0.0 0.0 0.03 1.98 1.98 90 1029.1
20210801012549 13 270 0.0 1.6 0.03 1.98 1.98 89 1029.1
20210801012045 13 270 0.0 3.2 0.03 1.98 1.98 89 1029.1
20210801011706 13 352 0.0 3.2 0.00 1.96 1.96 88 1029.1
20210801011113 13 270 0.0 3.2 0.00 1.96 1.96 87 1029.1
20210801010554 14 352 0.0 1.6 0.00 1.96 1.96 86 1029.0
20210801010134 14 351 0.0 6.4 0.00 1.96 1.96 87 1029.0
20210801005550 14 2 0.0 8.0 0.00 1.96 1.96 88 1028.9
20210801005052 14 358 0.0 4.8 0.03 1.96 1.96 88 1028.9
20210801004725 14 10 0.0 4.8 0.03 1.96 1.96 88 1028.7
20210801004141 14 356 0.0 11.3 0.05 1.96 1.96 89 1028.7
20210801003545 13 346 1.6 12.9 0.08 1.96 1.96 88 1028.7
20210801003150 13 270 0.0 12.9 0.08 1.96 1.96 89 1028.7
20210801002540 13 11 1.6 6.4 0.08 1.96 1.96 90 1028.7
20210801002039 13 32 3.2 6.4 0.08 1.96 1.96 91 1028.7
20210801001608 13 21 0.0 9.7 0.10 1.96 1.96 92 1028.6
20210801001040 13 12 0.0 3.2 0.13 1.96 1.96 93 1028.6
20210801000538 13 23 0.0 3.2 0.15 1.96 1.96 94 1028.6
20210801000102 13 63 0.0 0.0 0.18 1.96 1.96 93 1028.6
20210731235544 13 63 0.0 0.0 0.20 1.96 1.96 93 1028.6
20210731235107 13 73 0.0 0.0 0.20 1.93 1.93 93 1028.5
20210731234636 13 52 0.0 0.0 0.23 1.93 1.93 93 1028.5
20210731234037 13 52 0.0 3.2 0.23 1.91 1.91 93 1028.5
20210731233536 13 34 0.0 3.2 0.20 1.88 1.88 93 1028.5
20210731233053 13 31 0.0 8.0 0.25 1.88 1.88 93 1028.4
20210731232551 13 33 1.6 8.0 0.30 1.88 1.88 93 1028.4
20210731232044 13 17 0.0 6.4 0.41 1.88 1.88 93 1028.4
20210731231654 13 352 0.0 1.6 0.46 1.85 1.85 93 1028.3
20210731231034 13 352 0.0 6.4 0.48 1.83 1.83 93 1028.3
20210731230616 13 350 0.0 6.4 0.61 1.80 1.80 93 1028.4
20210731230043 13 347 0.0 11.3 0.71 1.78 1.78 93 1028.4
20210731225544 13 352 0.0 11.3 0.71 1.75 1.75 93 1028.1
20210731225037 13 21 0.0 3.2 0.86 1.73 1.73 93 1028.1
20210731224716 13 20 0.0 4.8 0.86 1.70 1.70 93 1028.1
20210731224050 13 357 0.0 4.8 0.86 1.68 1.68 93 1028.0
20210731223531 13 23 1.6 6.4 0.89 1.68 1.68 93 1028.0
20210731223114 13 26 1.6 6.4 0.86 1.63 1.63 93 1027.9
20210731222530 13 15 1.6 4.8 0.84 1.57 1.57 93 1027.9
20210731222102 13 14 1.6 4.8 0.76 1.45 1.45 93 1027.9
20210731221632 14 26 3.2 8.0 0.71 1.37 1.37 93 1027.8
20210731221030 14 40 0.0 4.8 0.71 1.32 1.32 93 1027.8
20210731220527 14 33 0.0 3.2 0.69 1.19 1.19 93 1027.7
20210731220043 15 36 0.0 3.2 0.66 1.07 1.07 93 1027.7
20210731215526 15 29 0.0 1.6 0.64 0.99 0.99 93 1027.5
20210731215026 15 23 0.0 0.0 0.56 0.86 0.86 93 1027.5
20210731214536 15 270 0.0 0.0 0.53 0.81 0.81 92 1027.4
20210731214033 15 270 0.0 0.0 0.56 0.81 0.81 92 1027.4
20210731213539 15 270 0.0 0.0 0.53 0.79 0.79 92 1027.3
20210731213049 15 270 0.0 0.0 0.51 0.76 0.76 92 1027.3
20210731212525 15 270 0.0 0.0 0.48 0.71 0.71 91 1027.1
20210731212028 15 270 0.0 0.0 0.43 0.69 0.69 91 1027.2
20210731211550 15 270 0.0 0.0 0.38 0.64 0.64 90 1027.2
20210731211022 15 343 0.0 0.0 0.30 0.56 0.56 89 1027.1
20210731210521 15 358 0.0 0.0 0.25 0.51 0.51 87 1027.0
20210731210031 16 4 0.0 0.0 0.15 0.41 0.41 85 1026.9
20210731205530 16 355 0.0 0.0 0.10 0.36 0.36 83 1026.9
20210731205019 17 94 0.0 0.0 0.05 0.30 0.30 79 1026.8
20210731204533 17 94 0.0 0.0 0.03 0.28 0.28 81 1026.9
20210731204035 17 94 0.0 0.0 0.00 0.25 0.25 79 1026.8
20210731203530 17 94 0.0 0.0 0.00 0.25 0.25 77 1026.8
20210731203038 17 86 0.0 0.0 0.00 0.25 0.25 77 1026.8
20210731202518 18 106 0.0 1.6 0.00 0.25 0.25 78 1026.7
20210731202018 18 58 0.0 3.2 0.00 0.25 0.25 77 1026.6
20210731201622 17 62 0.0 3.2 0.00 0.25 0.25 78 1026.6
20210731201026 17 65 0.0 1.6 0.00 0.25 0.25 77 1026.6
20210731200518 17 67 0.0 3.2 0.00 0.25 0.25 78 1026.6
20210731200042 17 65 0.0 4.8 0.00 0.25 0.25 77 1026.6
20210731195517 17 74 0.0 1.6 0.00 0.25 0.25 79 1026.6
20210731195016 17 63 0.0 3.2 0.00 0.25 0.25 81 1026.6
20210731194551 17 60 0.0 4.8 0.00 0.25 0.25 82 1026.6
20210731194039 17 57 0.0 4.8 0.00 0.25 0.25 83 1026.6
20210731193516 16 50 0.0 3.2 0.00 0.25 0.25 84 1026.6
20210731193024 16 65 0.0 3.2 0.00 0.25 0.25 85 1026.7
20210731192515 16 69 0.0 1.6 0.00 0.25 0.25 84 1026.7